Location: Middle Street
(51.7167°N, 0.0333°E)
Time: 02:29:21
(UTC+00:00)

NOAA 11 - Pass Details

Date: 20 January 2021
Orbit: 832 x 850 km, 98.4° (Epoch: 24 February)

Event Time Altitude Azimuth Distance (km) Brightness Sun altitude
Rises 17:19:15 0° 161° (SSE) 3,404 7.4 -7.9°
Reaches altitude 10° 17:21:36 10° 161° (SSE) 2,473 6.7 -8.2°
Maximum altitude 17:27:07 85° 73° (ENE) 861 4.2 -9.0°
Drops below altitude 10° 17:32:39 10° 346° (NNW) 2,487 6.6 -9.8°
Sets 17:35:02 0° 346° (NNW) 3,425 7.3 -10.2°
